Location: *
(46.0770°N, 1.6444°E)
Time: 15:53:01
(UTC+00:00)

Cosmos 2237 Rocket - Pass Details

Date: 16 September 2019
Orbit: 833 x 852 km, 71.0° (Epoch: 20 October)

Event Time Altitude Azimuth Distance (km) Brightness Sun altitude
Rises 20:11:15 0° 333° (NNW) 3,424 6.3 -21.9°
Reaches altitude 10° 20:13:43 10° 333° (NNW) 2,486 5.4 -22.3°
Maximum altitude 20:19:26 86° 248° (WSW) 859 2.1 -23.2°
Enters shadow 20:21:08 48° 160° (SSE) 1,102 2.4 -23.4°
